SL-14 R/B, 18794

Orbit data source: Space-Track

SL-14 R/B, 18794 is space debris in LEO originally from a launch on Fri, 15 Jan 1988 UTC launched from the Plesetsk Missile And Space Complex (PKMTR). Debris objects in space refer to the collection of defunct objects orbiting the Earth. Examples of debris include non-operational satellites, rocket bodies, and fragments generated from explosions, collisions, or faulty payload assembly.

Loading next visibility...
Identifier
18794, 1988-002G
Orbit
LEO
Country
Flag of CISCIS
Related business
Manufacturer
Yuzhnoe
Mission
Spacecraft
Bus & Motor
S5M, Unknown motor
Mass
1,600 kg wet, 1,600 kg dry
Launch date (UTC)
1988-01-15 (38 years ago)
Launch vehicle
Unknown
Launch site
Plesetsk Missile And Space Complex (PKMTR)
Object type
Payload
Rocket body
Debris
Shape & HBR
Cyl, 1.4 m
Radar Cross Section
7.351 m², Large (>1 m²)

Expand to show TLE details & history
Last TLE update: 21 hours ago

TLE from 21 hours ago
0 SL-14 R/B
1 18794U 88002G   25260.28245568  .00000012  00000-0  71818-5 0  9995
2 18794  82.6048 194.1226 0037976   8.3883 146.8628 12.55582997726492
Epoch: 2025-09-17T06:46Z
TLE epoch observation values (Epoch: 2025-09-17T06:46:44.17Z)
Latitude
24.31768°
Longitude
-87.36799°
Altitude
1,468.919 km
Speed
7.119 km/s
True Right ascension
00h 43m 06s
True Declination
24° 12' 02"
Sunlit
Object was in full shadow at epoch
Visualization orbit readout
Latitude
Unknown
Longitude
Unknown
Altitude
Unknown
Speed
Unknown
Apparent Right ascension
Unknown
Apparent Declination
Unknown
Sunlit
N/A
Visualization observer readout
Local Sidereal Time
20:39:00
Azimuth
Unknown
Elevation
Unknown
Doppler factor
Unknown
Orbital elements
Apogee altitude
1,468.243 km
Perigee altitude
1,408.874 km
Semi-major axis
7,816.695 km
Eccentricity
0.0038
Inclination
82.6048°
RAAN
194.1226°
Arg. of periapsis
8.3883°
True anomaly
147.09974°
Mean anomaly
146.8628°
Eccentric anomaly
146.98137°
Mean motion
3.14057 °/min
Orbital period
114.63 mins
BSTAR
0.0000071818
Loading maneuver chart data...
Computing Atmospheric mass density...
Loading historical data...
Loading historical data...
Loading historical data...
Loading historical data...
Loading historical data...
Loading historical data...
Loading historical data...

Documentation

Showing up to 5 results
|